Location: Archemont
(49.1579°N, 1.7598°E)
Time: 19:01:09
(UTC+00:00)

Vanguard 1 Rocket - Visible Passes

Search period start: 19 April 2024 00:00
Search period end: 29 April 2024 00:00
Orbit: 652 x 4219 km, 34.3° (Epoch: 18 April)

Date Brightness Start Highest point End Pass type
(mag) Time Alt. Az. Time Alt. Az. Time Alt. Az.
19 Apr 9.0 20:07:51 10° SW 20:13:11 28° SSE 20:18:52 16° SE visible
19 Apr 9.6 22:31:02 10° WSW 22:36:03 26° SSW 22:36:03 26° SSW visible
20 Apr 9.2 21:20:04 10° WSW 21:26:13 29° S 21:27:57 27° SSE visible
20 Apr 10.3 23:44:48 10° WSW 23:45:08 11° WSW 23:45:08 11° WSW visible
21 Apr 9.0 20:09:27 10° SW 20:14:31 26° S 20:19:50 16° SE visible
21 Apr 9.7 22:33:03 10° WSW 22:37:02 21° SSW 22:37:02 21° SSW visible
22 Apr 9.3 21:21:54 10° WSW 21:27:34 25° S 21:28:56 24° S visible
23 Apr 9.1 20:11:08 10° SW 20:15:52 24° S 20:20:50 15° SE visible
23 Apr 9.9 22:35:23 10° WSW 22:38:02 16° SW 22:38:02 16° SW visible
24 Apr 9.5 21:23:56 10° SW 21:28:57 20° S 21:29:57 20° S visible
25 Apr 9.2 20:12:58 10° SW 20:17:15 21° S 20:21:53 13° SE visible
25 Apr 10.1 22:38:25 10° SW 22:39:04 11° SW 22:39:04 11° SW visible
26 Apr 9.7 21:26:18 10° SW 21:30:20 16° SSW 21:31:01 16° S visible
27 Apr 9.3 20:14:58 10° SW 20:18:38 17° S 20:22:59 11° SSE visible
28 Apr 9.9 21:29:44 10° SSW 21:31:43 11° SSW 21:32:09 11° SSW visible
